Location: Newark
(36.1222°N, 100.9183°E)
Time: 21:23:48
(UTC+00:00)

ISS - Visible Passes

Search period start: 18 March 2019 00:00
Search period end: 28 March 2019 00:00
Orbit: 406 x 411 km, 51.6° (Epoch: 19 March)

Date Brightness Start Highest point End Pass type
(mag) Time Alt. Az. Time Alt. Az. Time Alt. Az.
18 Mar -1.7 22:21:35 13° SSW 22:21:35 13° SSW 22:22:34 10° SSW visible
19 Mar -1.2 13:19:49 10° SW 13:20:20 14° SW 13:20:20 14° SW visible
20 Mar -2.9 12:29:14 10° SSW 12:32:08 29° SE 12:32:41 27° ESE visible
21 Mar -2.8 13:14:24 10° WSW 13:17:33 44° NW 13:17:39 43° NNW visible
22 Mar -3.9 12:23:12 10° SW 12:26:29 89° NW 12:29:34 12° NE visible
22 Mar -0.4 14:01:45 10° WNW 14:02:21 12° NW 14:02:21 12° NW visible
23 Mar -1.3 13:09:40 10° W 13:12:11 20° NNW 13:14:03 13° N visible
24 Mar -2.1 12:17:57 10° W 12:20:58 32° NW 12:23:59 10° NNE visible
25 Mar -0.8 13:05:51 10° NW 13:06:56 11° NNW 13:08:00 10° N visible
26 Mar -1.0 12:13:24 10° WNW 12:15:34 16° NNW 12:17:44 10° NNE visible
